Location: Observatory
(52.1446°N, 0.4624°W)
Time: 05:51:35
(UTC+00:00)

ISS - Pass Details

Date: 23 January 2021
Orbit: 418 x 421 km, 51.6° (Epoch: 23 January)

Event Time Altitude Azimuth Distance (km) Brightness Sun altitude
Rises 18:29:02 0° 240° (WSW) 2,365 1.4 -17.4°
Reaches altitude 10° 18:31:10 10° 235° (SW) 1,503 0.0 -17.7°
Maximum altitude 18:34:26 49° 159° (SSE) 552 -3.3 -18.2°
Enters shadow 18:34:47 47° 137° (SE) 571 -3.4 -18.3°
